Weather History for Cheboygan, MI

Change the Weather History Date:

Monday, May 20, 2013

  Actual Average (KPLN) Record (KPLN)
Temperature  
Mean Temperature 56 °F -  
Max Temperature 66 °F 67 °F 92 °F (1977)
Min Temperature 47 °F 40 °F 22 °F (1956)
Degree Days  
Heating Degree Days 8    
Growing Degree Days 6 (Base 50)    
Moisture  
Dew Point 52 °F    
Average Humidity 85    
Maximum Humidity 96    
Minimum Humidity 64    
Precipitation  
Precipitation 0.00 in - - ()
Sea Level Pressure  
Sea Level Pressure 29.85 in    
Wind  
Wind Speed 7 mph (East)    
Max Wind Speed 17 mph    
Max Gust Speed 29 mph    
Visibility 6 miles    
Events Rain    
Averages and records for this station are not official NWS values.
T = Trace of Precipitation, MM = Missing Value Source: NWS Daily Summary

Daily Weather History Graph

Daily Weather History Graph

Search for Another Location

Airport:

Trip Planner

Search our weather history database for the weather conditions in past years. The results will help you decide how hot, cold, wet, or windy it might be!

Date:

Astronomy

May. 20, 2013 Rise Set
Actual Time 6:01 AM EDT 9:08 PM EDT
Civil Twilight 5:25 AM EDT 9:44 PM EDT
Nautical Twilight 4:40 AM EDT 10:30 PM EDT
Astronomical Twilight 3:44 AM EDT 11:26 PM EDT
Moon 4:01 PM EDT (5/20) 3:11 AM EDT (5/20)
Length of Visible Light 16h 18m
Length of Day
15h 07m
Waxing Gibbous, 75% of the Moon is Illuminated
May 20
Waxing Gibbous
May 25
Full
May 31
Last Quarter
Jun 8
New
Jun 16
First Quarter

Hourly Weather History & Observations

Time (EDT) Temp. Dew Point Humidity Pressure Visibility Wind Dir Wind Speed Gust Speed Precip Events Conditions
12:15 AM 47.7 °F 42.8 °F 83% 29.92 in 7.0 mi NE 3.5 mph - N/A   Overcast
12:35 AM 48.2 °F 43.2 °F 83% 29.92 in 7.0 mi Calm Calm - N/A   Overcast
12:55 AM 49.1 °F 43.9 °F 82% 29.92 in 7.0 mi Calm Calm - N/A   Overcast
1:15 AM 49.3 °F 44.1 °F 82% 29.91 in 7.0 mi Calm Calm - N/A   Scattered Clouds
1:35 AM 49.3 °F 44.2 °F 83% 29.91 in 7.0 mi Calm Calm - N/A   Scattered Clouds
1:55 AM 50.2 °F 45.0 °F 82% 29.90 in 7.0 mi Calm Calm - N/A   Mostly Cloudy
2:15 AM 50.4 °F 45.5 °F 83% 29.89 in 7.0 mi Calm Calm - N/A   Mostly Cloudy
2:35 AM 51.4 °F 46.4 °F 83% 29.89 in 7.0 mi Calm Calm - N/A   Overcast
2:55 AM 51.4 °F 46.9 °F 85% 29.90 in 5.0 mi NE 5.8 mph - N/A   Haze
3:15 AM 48.4 °F 44.8 °F 87% 29.90 in 4.0 mi ENE 10.4 mph - N/A   Overcast
3:35 AM 47.3 °F 44.6 °F 90% 29.91 in 2.5 mi ENE 11.5 mph 17.3 mph N/A   Overcast
4:16 AM 48.0 °F 46.2 °F 93% 29.91 in 2.0 mi East 8.1 mph - N/A   Overcast
4:35 AM 49.3 °F 47.3 °F 93% 29.92 in 3.0 mi ENE 3.5 mph - N/A   Overcast
4:55 AM 51.3 °F 49.3 °F 93% 29.90 in 4.0 mi East 8.1 mph - N/A   Scattered Clouds
5:15 AM 53.8 °F 51.4 °F 92% 29.91 in 4.0 mi East 5.8 mph - N/A   Clear
5:35 AM 54.0 °F 51.8 °F 92% 29.91 in 4.0 mi Calm Calm - N/A   Clear
5:55 AM 56.3 °F 53.6 °F 91% 29.90 in 5.0 mi East 6.9 mph - N/A   Clear
6:15 AM 57.2 °F 52.7 °F 85% 29.90 in 7.0 mi East 12.7 mph 18.4 mph N/A   Clear
6:35 AM 57.7 °F 53.6 °F 86% 29.91 in 10.0 mi East 11.5 mph - N/A   Clear
6:55 AM 58.1 °F 53.8 °F 86% 29.92 in 10.0 mi East 11.5 mph 17.3 mph N/A   Clear
7:15 AM 58.3 °F 54.0 °F 86% 29.92 in 7.0 mi East 11.5 mph 18.4 mph N/A   Scattered Clouds
7:35 AM 59.0 °F 53.8 °F 83% 29.91 in 10.0 mi East 13.8 mph 23.0 mph N/A   Clear
8:15 AM 58.1 °F 53.4 °F 84% 29.91 in 7.0 mi East 12.7 mph 23.0 mph N/A   Overcast
8:35 AM 58.3 °F 53.6 °F 84% 29.90 in 7.0 mi East 12.7 mph 20.7 mph N/A   Overcast
8:55 AM 58.5 °F 53.6 °F 84% 29.90 in 10.0 mi East 17.3 mph 21.9 mph N/A   Overcast
9:15 AM 58.1 °F 53.2 °F 84% 29.91 in 10.0 mi East 12.7 mph - N/A   Overcast
9:34 AM 58.3 °F 53.1 °F 83% 29.92 in 10.0 mi East 12.7 mph 24.2 mph N/A   Overcast
10:15 AM 59.9 °F 52.2 °F 76% 29.91 in 10.0 mi East 17.3 mph 24.2 mph N/A   Mostly Cloudy
10:35 AM 62.6 °F 53.1 °F 71% 29.87 in 10.0 mi East 17.3 mph 25.3 mph N/A   Mostly Cloudy
10:55 AM 62.6 °F 54.0 °F 73% 29.89 in 7.0 mi ESE 11.5 mph 25.3 mph N/A   Mostly Cloudy
11:35 AM 65.7 °F 54.0 °F 66% 29.88 in 10.0 mi East 16.1 mph 21.9 mph N/A   Scattered Clouds
11:55 AM 65.1 °F 53.4 °F 66% 29.88 in 10.0 mi East 17.3 mph 24.2 mph N/A   Clear
12:15 PM 65.5 °F 54.3 °F 67% 29.86 in 10.0 mi East 17.3 mph 24.2 mph N/A   Clear
12:35 PM 65.1 °F 54.5 °F 68% 29.85 in 7.0 mi East 15.0 mph 28.8 mph N/A   Clear
12:55 PM 64.8 °F 53.6 °F 67% 29.85 in 7.0 mi East 17.3 mph 21.9 mph N/A   Clear
1:15 PM 64.6 °F 53.6 °F 68% 29.83 in 7.0 mi ENE 15.0 mph - N/A   Clear
1:35 PM 65.7 °F 54.0 °F 66% 29.82 in 7.0 mi East 13.8 mph 19.6 mph N/A   Clear
1:55 PM 66.0 °F 54.1 °F 65% 29.81 in 10.0 mi East 13.8 mph - N/A   Clear
2:15 PM 66.7 °F 54.3 °F 64% 29.80 in 10.0 mi East 12.7 mph - N/A   Clear
2:55 PM 61.5 °F 52.7 °F 73% 29.78 in 10.0 mi NE 12.7 mph - N/A   Mostly Cloudy
3:15 PM 60.3 °F 51.8 °F 74% 29.77 in 10.0 mi ENE 15.0 mph - N/A   Mostly Cloudy
3:35 PM 58.5 °F 50.7 °F 75% 29.77 in 10.0 mi ENE 12.7 mph - N/A   Mostly Cloudy
3:55 PM 59.4 °F 53.8 °F 82% 29.84 in 5.0 mi SSW 9.2 mph - N/A Rain Rain
4:15 PM 58.3 °F 55.0 °F 89% 29.79 in 5.0 mi East 4.6 mph - N/A Rain Rain
4:34 PM 57.7 °F 55.4 °F 92% 29.79 in 3.0 mi SE 5.8 mph - N/A Rain Rain
4:55 PM 58.3 °F 56.3 °F 93% 29.76 in 3.0 mi SSE 3.5 mph - N/A Rain Light Rain
5:15 PM 59.9 °F 58.1 °F 94% 29.76 in 4.0 mi Calm Calm - N/A Rain Light Rain
5:35 PM 60.1 °F 58.1 °F 93% 29.76 in 3.0 mi Calm Calm - N/A   Scattered Clouds
5:55 PM 62.6 °F 60.4 °F 93% 29.77 in 5.0 mi ENE 3.5 mph - N/A   Mostly Cloudy
6:15 PM 62.6 °F 60.3 °F 92% 29.77 in 5.0 mi East 3.5 mph - N/A   Overcast
6:35 PM 62.4 °F 59.9 °F 91% 29.78 in 4.0 mi ENE 4.6 mph - N/A   Mostly Cloudy
6:55 PM 61.2 °F 58.5 °F 91% 29.79 in 4.0 mi ENE 3.5 mph - N/A   Overcast
7:15 PM 59.0 °F 56.8 °F 93% 29.79 in 2.5 mi Calm Calm - N/A   Overcast
7:35 PM 60.3 °F 57.9 °F 92% 29.79 in 4.0 mi NNE 3.5 mph - N/A   Overcast
7:55 PM 58.3 °F 56.3 °F 93% 29.78 in 2.5 mi NNE 3.5 mph - N/A   Mist
8:15 PM 53.4 °F 50.9 °F 91% 29.78 in 2.0 mi North 6.9 mph - N/A   Mist
8:35 PM 50.2 °F 48.2 °F 93% 29.80 in 4.0 mi ENE 11.5 mph - N/A   Scattered Clouds
8:55 PM 49.1 °F 47.3 °F 93% 29.81 in 2.0 mi ENE 9.2 mph - N/A   Overcast
9:14 PM 49.5 °F 47.7 °F 94% 29.81 in 4.0 mi ENE 5.8 mph - N/A   Scattered Clouds
9:35 PM 47.7 °F 45.9 °F 93% 29.81 in 2.0 mi ENE 5.8 mph - N/A   Overcast
9:55 PM 49.8 °F 48.0 °F 94% 29.81 in 2.0 mi NE 5.8 mph - N/A   Overcast
10:15 PM 50.9 °F 49.3 °F 94% 29.82 in 0.8 mi ENE 9.2 mph - N/A   Overcast
10:35 PM 53.2 °F 51.8 °F 95% 29.82 in 5.0 mi East 9.2 mph - N/A   Overcast
10:55 PM 55.6 °F 54.5 °F 96% 29.82 in 10.0 mi East 11.5 mph 16.1 mph N/A   Overcast
11:15 PM 55.8 °F 54.0 °F 94% 29.82 in 10.0 mi East 10.4 mph 16.1 mph N/A   Overcast
11:35 PM 56.1 °F 54.0 °F 92% 29.82 in 10.0 mi East 8.1 mph - N/A   Overcast
11:55 PM 54.5 °F 52.7 °F 94% 29.81 in 5.0 mi ENE 6.9 mph - N/A   Overcast